Погода в Лезене

Швейцария     46°20′31″N   7°00′45″E
темп.,
°C
ветер,
м/с
пор.,
м/с
влажн.,
%
обл.,
%
осадки,
мм/ч
давл.,
гПа
погр.,
м
9 декабря, чт
чт901:00−3сз2398100 8.6 1005230
04:00−4ссз3498100 4.9 1007312
07:00−8зсз119889 6.2 101120
10:00−5ссз1197100 0.3 1012186
13:00−3с229095 0.8 1011543
16:00−6ссв019562 0.1 101215
19:00−13ююв229857 0.1 101822
22:00−15юв229642 0.0 101931
10 декабря, пт
пт1001:00−17юв3394100 0.0 101842
04:00−11юв3389100 0.0 101061
07:00−8юв3391100 0.6 100472
10:00−5ююв2596100 3.4 1003231
13:00−2ссз1198100 9.4 1001231
16:00−2зсз2399100 8.0 1003284
19:00−5з2298100 12.8 100867
22:00−4зсз2398100 4.3 1009191
11 декабря, сб
сб1101:00−5ссз2398100 7.3 1013159
04:00−9ссв119995 0.9 101815
07:00−12юв1110099 1.1 102327
10:00−8юв229679 0.1 1024187
13:00−5в019152 0.1 1024295
16:00−8ю009844 0.0 102610
19:00−14ююв229771 0.0 103320
22:00−15юв229631 0.0 103523
12 декабря, вс
вс1201:00−15юв229734 0.0 103626
04:00−16юв229742 0.0 103730
07:00−15юв229634 0.0 103832
10:00−8юв239226 0.0 103480
13:00−2юв228331 0.0 1030161
16:00−3ююв119162 0.0 103017
19:00−6юв229243 0.0 103331
22:00−7юв229322 0.0 103425
13 декабря, пн
пн1301:00−7ююв229570 0.0 103227
04:00−1юв239674 0.0 102870
07:00−3юв229718 0.0 102825
10:000юв2210030 0.0 102754
13:000юв22100100 0.0 102664
16:000юв229997 0.0 102771
19:00−1юв229752 0.0 102846
22:00−4юв229527 0.0 103037